SCP
0 0 0 0 0 0 0 0 0 0 0 0 0 0 0 0 0 0 0 0 0 0 0 0 0 0 0 0 0 0 0 0 0 0 0 0 0 0 0 0 0 0 0
0 0 0 0 0 0 0 0 0 0 0 0 0 0 0 0 0 0 0 0 0 0 0 0 0 0 0 0 0 0 0 0 0 0 0 0 0 0 0 0 0 0 0
0 0 0 0 0 0 0 0 0 0 0 0 0 0 0 0 0 0 0 0 0 0 0 0 0 0 0 0 0 0 0 0 0 0 0 0 0 0 0 0 0 0 0
0 0 0 0 0 0 0 0 0 0 0 0 0 0 0 0 0 0 0 0 0 0 0 0 0 0 0 0 0 0 0 0 0 0 0 0 0 0 0 0 0 0 0
0 0 0 0 0 0 0 0 0 0 0 0 0 0 0 0 0 0 0 0 0 0 0 0 0 0 0 0 0 0 0 0 0 0 0 0 0 0 0 0 0 0 0
0 0 0 0 0 0 0 0 0 0 0 0 0 0 0 0 0 0 0 0 0 0 0 0 0 0 0 0 0 0 0 0 0 0 0 0 0 0 0 0 0 0 0
0 0 0 0 0 0 0 0 0 0 0 0 0 0 0 0 0 0 0 0 0 0 0 0 0 0 0 0 0 0 0 0 0 0 0 0 0 0 0 0 0 0 0
0 0 0 0 0 0 0 0 0 0 0 0 0 0 0 0 0 0 0 0 0 0 0 0 0 0 0 0 0 0 0 0 0 0 0 0 0 0 0 0 0 0 0
0 0 0 0 0 0 0 0 0 0 0 0 0 0 0 0 0 0 0 0 0 0 0 0 0 0 0 0 0 0 0 0 0 0 0 0 0 0 0 0 0 0 0
0 0 0 0 0 0 0 0 0 0 0 0 0 0 0 0 0 0 0 0 0 0 0 0 0 0 0 0 0 0 0 0 0 0 0 0 0 0 0 0 0 0 0
0 0 0 0 0 0 0 0 0 0 0 0 0 0 0 0 0 0 0 0 0 0 0 0 0 0 0 0 0 0 0 0 0 0 0 0 0 0 0 0 0 0 0
0 0 0 0 0 0 0 0 0 0 0 0 0 0 0 0 0 0 0 0 0 0 0 0 0 0 0 0 0 0 0 0 0 0 0 0 0 0 0 0 0 0 0
0 0 0 0 0 0 0 0 0 0 0 0 0 0 0 0 0 0 0 0 0 0 0 0 0 0 0 0 0 0 0 0 0 0 0 0 0 0 0 0 0 0 0
0 0 0 0 0 0 0 0 0 0 0 0 0 0 0 0 0 0 0 0 0 0 0 0 0 0 0 0 0 0 0 0 0 0 0 0 0 0 0 0 0 0 0
0 0 0 0 0 0 0 0 0 0 0 0 0 0 0 0 0 0 0 0 0 0 0 0 0 0 0 0 0 0 0 0 0 0 0 0 0 0 0 0 0 0 0
0 0 0 0 0 0 0 0 0 0 0 0 0 0 0 0 0 0 0 0 0 0 0 0 0 0 0 0 0 0 0 0 0 0 0 0 0 0 0 0 0 0 0
0 0 0 0 0 0 0 0 0 0 0 0 0 0 0 0 0 0 0 0 0 0 0 0 0 0 0 0 0 0 0 0 0 0 0 0 0 0 0 0 0 0 0
0 0 0 0 0 0 0 0 0 0 0 0 0 0 0 0 0 0 0 0 0 0 0 0 0 0 0 0 0 0 0 0 0 0 0 0 0 0 0 0 0 0 0
0 0 0 0 0 0 0 0 0 0 0 0 0 0 0 0 0 0 0 0 0 0 0 0 0 0 0 0 0 0 0 0 0 0 0 0 0 0 0 0 0 0 0
0 0 0 0 0 0 0 0 0 0 0 0 0 0 0 0 0 0 0 0 0 0 0 0 0 0 0 0 0 0 0 0 0 0 0 0 0 0 0 0 0 0 0
0 0 0 0 0 0 0 0 0 0 0 0 0 0 0 0 0 0 0 0 0 0 0 0 0 0 0 0 0 0 0 0 0 0 0 0 0 0 0 0 0 0 0
0 0 0 0 0 0 0 0 0 0 0 0 0 0 0 0 0 0 0 0 0 0 0 0 0 0 0 0 0 0 0 0 0 0 0 0 0 0 0 0 0 0 0
0 0 0 0 0 0 0 0 0 0 0 0 0 0 0 0 0 0 0 0 0 0 0 0 0 0 0 0 0 0 0 0 0 0 0 0 0 0 0 0 0 0 0
0 0 0 0 0 0 0 0 0 0 0 0 0 0 0 0 0 0 0 0 0 0 0 0 0 0 0 0 0 0 0 0 0 0 0 0 0 0 0 0 0 0 0
0 0 0 0 0 0 0 0 0 0 0 0 0 0 0 0 0 0 0 0 0 0 0 0 0 0 0 0 0 0 0 0 0 0 0 0 0 0 0 0 0 0 0
0 0 0 0 0 0 0 0 0 0 0 0 0 0 0 0 0 0 0 0 0 0 0 0 0 0 0 0 0 0 0 0 0 0 0 0 0 0 0 0 0 0 0
Wind_Speed_500mb
33 33 33 35 37 38 40 21 20 18 14 11 8 5 3 5 9 12 16 20 23 26 31 34 37 40 43 45 47 49 51 49 65 100 85 86 82 80 76 72 73 74 79
38 38 38 38 37 37 34 28 24 20 17 13 8 4 4 6 9 13 18 23 27 32 36 40 44 46 48 50 52 54 56 57 62 83 92 92 88 82 81 78 76 72 72
44 42 41 39 37 34 32 29 25 19 14 10 6 3 4 8 14 20 26 31 35 39 42 46 50 54 56 58 59 62 62 63 64 71 94 91 91 84 87 82 82 84 82
43 40 38 37 35 32 28 24 20 17 13 9 4 5 11 18 24 29 33 36 40 43 47 51 54 59 63 67 67 67 67 68 70 72 79 86 82 82 77 83 93 84 90
44 42 40 38 34 30 27 24 20 15 9 3 5 12 19 24 30 35 38 42 46 48 50 53 56 58 59 60 64 65 66 68 67 71 73 76 74 73 72 73 84 90 90
45 42 40 37 33 29 25 22 17 11 4 4 11 19 26 31 35 37 41 44 47 51 53 54 57 59 60 61 62 63 61 57 60 59 64 69 75 74 76 74 74 78 84
46 44 40 36 31 28 25 20 14 7 6 12 19 25 30 32 35 39 42 45 48 51 55 58 61 60 61 63 64 64 62 56 50 52 60 62 70 66 67 69 68 71 75
49 44 39 35 32 28 23 17 12 9 12 19 23 25 29 33 35 39 43 47 50 51 54 57 59 61 63 66 67 67 63 57 51 49 51 56 57 62 59 61 67 62 65
50 45 40 37 33 27 21 15 12 13 17 19 21 24 28 32 35 38 42 44 48 49 51 54 58 61 63 62 63 63 64 63 58 50 49 49 45 44 45 51 55 56 67
51 46 41 35 29 24 18 15 14 15 16 20 23 25 26 28 30 34 40 45 48 50 51 51 53 59 59 57 54 56 63 61 58 59 57 49 43 40 40 43 48 45 47
52 47 41 35 28 21 17 16 16 17 18 19 23 23 24 27 30 34 39 46 53 57 58 59 56 57 58 54 50 52 54 53 55 56 52 48 44 38 35 34 32 31 34
51 45 38 30 23 20 18 19 19 19 20 19 18 19 21 24 28 33 38 45 50 57 59 60 60 59 53 54 50 47 47 47 51 50 46 44 44 42 34 33 31 25 26
50 42 35 29 25 23 23 22 21 21 18 18 20 23 26 29 32 37 43 47 52 58 61 61 60 57 52 54 52 49 47 46 46 47 46 43 42 40 33 32 28 22 21
47 41 34 30 28 28 28 25 24 21 19 21 24 29 34 39 42 46 54 58 61 61 60 61 62 58 51 49 52 53 46 43 45 47 44 41 40 35 25 24 17 17 12
44 39 35 32 33 35 32 27 25 25 25 26 29 34 41 47 48 52 58 61 59 57 52 64 68 63 62 58 50 52 50 45 45 43 41 42 37 28 19 17 12 13 13
44 40 38 38 39 37 33 32 31 31 30 31 35 38 43 49 53 56 58 57 55 48 52 56 63 65 66 59 54 51 52 50 47 45 41 38 30 22 18 15 15 15 16
45 43 41 42 43 41 39 38 37 36 35 36 39 42 47 52 54 57 59 60 58 53 53 58 63 64 62 60 56 51 52 51 51 46 42 36 31 28 28 28 26 25 25
47 45 45 46 47 45 44 44 44 42 40 38 40 44 48 52 54 55 60 64 60 54 54 57 59 59 59 58 57 56 55 55 51 47 42 37 34 34 32 32 31 30 27
48 48 49 51 50 49 48 47 47 47 47 48 46 44 48 52 54 54 54 57 62 62 59 59 56 56 55 55 55 53 53 51 49 44 40 37 35 33 32 32 31 31 29
52 52 52 53 53 53 53 51 50 51 50 50 49 51 51 55 56 55 54 54 54 54 55 56 55 54 53 52 50 50 48 46 44 42 40 37 35 33 30 31 30 29 30
54 53 55 59 58 57 56 54 53 53 51 52 51 51 54 58 57 56 56 54 54 53 54 53 52 50 49 49 47 45 44 43 42 40 39 38 37 35 29 32 32 32 33
57 57 65 61 60 60 58 57 55 55 54 53 52 50 52 53 53 53 53 52 51 51 52 52 49 47 46 45 43 41 40 41 40 40 41 41 40 34 31 35 33 32 34
68 68 66 64 64 64 62 59 57 56 54 54 53 52 50 51 51 51 51 50 49 49 48 48 48 45 45 44 41 40 39 39 40 42 44 44 41 36 36 39 42 41 36
67 68 67 66 67 64 61 58 57 55 54 52 51 50 50 49 49 49 49 50 48 46 48 49 48 47 45 43 44 43 42 42 42 42 43 43 41 42 45 47 46 40 35
73 71 69 68 66 62 60 57 53 52 52 50 49 50 49 48 48 47 47 48 48 48 48 49 49 48 47 46 45 44 45 44 45 46 46 47 47 46 47 45 39 35 35
73 69 66 65 63 59 56 52 50 49 49 49 49 49 48 49 48 47 46 47 49 50 50 50 50 50 48 49 49 49 49 49 49 49 49 49 49 49 47 42 37 36 38
Wind_Direction_500mb
177 183 186 185 187 192 207 194 153 156 158 162 175 191 238 291 303 307 310 313 313 311 312 315 315 314 313 311 309 307 303 298 289 299 299 303 301 305 302 301 300 295 298
160 159 156 152 153 158 158 153 153 157 153 154 161 186 252 288 302 309 312 316 318 321 321 321 320 317 316 317 315 313 309 305 298 298 302 304 303 306 304 303 304 303 300
155 157 155 154 154 155 154 153 153 157 161 164 176 216 285 319 325 324 327 328 327 326 324 322 322 320 320 319 318 316 314 311 307 304 307 311 312 313 313 313 311 307 306
161 162 159 157 157 157 155 155 158 162 167 172 198 306 328 329 328 325 322 320 319 319 320 320 321 321 320 319 318 316 313 311 309 306 303 306 309 311 312 315 313 312 312
169 168 167 164 163 162 163 164 168 169 173 202 319 329 325 319 316 315 314 315 314 315 317 317 317 318 318 318 317 316 314 311 309 306 304 306 307 311 310 310 307 309 309
175 174 173 171 170 169 169 170 169 172 182 300 319 317 316 315 315 315 315 316 318 319 320 321 321 321 321 319 318 317 316 314 311 309 308 308 308 307 307 306 307 310 313
180 181 179 175 174 174 175 175 177 194 264 296 305 308 309 313 315 317 318 320 325 327 327 326 325 325 323 322 321 319 319 316 313 309 306 305 303 306 310 312 310 306 304
185 185 182 180 180 181 183 188 204 240 280 295 305 311 314 318 322 325 328 330 330 330 329 328 328 328 328 327 323 321 321 320 318 314 310 308 307 310 308 303 301 305 307
190 189 189 187 186 188 193 205 235 273 289 298 306 314 320 322 325 326 326 326 326 329 329 329 329 327 325 324 319 318 316 317 319 317 315 311 312 312 308 305 308 313 315
192 191 189 188 192 198 209 233 259 273 288 301 311 316 319 319 323 326 325 324 324 327 327 325 322 320 320 319 316 314 312 316 318 317 317 316 315 315 308 304 309 315 318
192 191 191 193 199 211 234 254 265 277 290 299 306 314 321 325 325 322 322 323 325 323 321 319 319 318 319 318 316 311 311 314 310 311 314 317 320 321 317 314 316 317 321
192 193 196 201 213 231 246 259 266 273 286 299 310 319 325 325 322 321 322 320 319 317 316 316 317 318 318 316 314 312 309 305 306 312 315 321 324 325 327 326 325 324 329
195 198 203 213 228 240 249 251 256 268 281 297 305 311 316 319 321 319 317 317 317 316 314 313 314 313 314 311 316 316 311 309 309 310 312 315 318 318 319 326 332 337 349
202 206 212 224 235 239 239 243 256 263 278 293 302 308 314 320 321 323 323 324 322 319 318 309 311 311 311 306 308 312 308 306 303 306 306 309 316 318 314 323 344 349 349
209 216 224 232 239 240 238 248 257 262 272 284 295 307 312 316 320 322 323 323 321 320 312 304 308 312 312 311 307 308 314 308 306 305 305 308 315 322 319 317 326 348 348
217 224 231 237 239 240 245 251 255 263 273 284 293 300 305 309 313 317 319 318 318 312 307 304 304 303 305 307 305 301 303 305 303 303 300 302 309 313 317 323 323 325 325
224 232 238 242 242 242 249 254 260 264 270 277 286 294 299 303 309 313 315 314 318 309 305 301 298 300 302 304 302 300 296 298 299 294 292 291 292 291 295 301 303 305 306
232 239 244 246 244 246 253 260 264 267 273 280 287 294 298 302 306 309 311 313 311 307 307 305 303 301 301 301 298 293 290 292 291 286 281 280 282 285 287 290 293 296 298
240 245 248 247 247 250 257 265 270 275 278 282 288 293 297 300 304 309 310 311 312 312 311 307 305 303 302 299 298 296 294 291 287 279 272 272 273 274 281 284 286 289 291
244 248 251 250 250 253 258 266 273 277 280 284 291 296 299 300 305 309 310 311 311 310 307 304 304 301 301 300 299 299 295 291 284 276 271 268 267 268 273 281 283 286 289
250 252 256 252 252 255 260 266 273 277 280 284 289 293 297 301 306 307 309 312 313 311 309 307 305 302 300 299 298 297 294 289 282 276 271 268 267 264 268 277 283 288 293
253 258 256 253 254 257 260 264 270 274 278 282 285 288 293 298 301 305 309 311 310 309 307 306 306 303 300 298 296 294 291 288 283 277 273 270 266 264 269 276 280 286 290
254 251 252 252 254 255 258 262 267 272 276 280 285 290 294 296 301 305 307 307 306 304 302 301 301 300 299 297 294 291 287 285 284 283 279 274 270 269 270 275 281 283 284
247 250 251 251 252 254 258 262 267 271 275 280 284 288 293 296 300 302 303 302 302 301 299 298 298 299 298 296 294 291 288 285 283 282 281 279 279 277 276 278 278 277 275
248 247 248 250 252 254 257 261 265 269 273 278 282 287 290 293 296 297 298 298 298 298 297 296 294 293 293 293 292 290 289 287 286 284 283 282 281 279 278 276 273 271 269
245 245 247 248 250 252 256 260 263 267 271 274 278 282 287 290 291 293 294 294 294 294 294 293 291 291 290 290 289 288 286 285 284 283 283 283 282 280 276 273 269 266 264
Wind_Speed_850mb
33 33 33 35 37 38 40 21 20 18 14 11 8 5 3 5 9 12 16 20 23 26 31 34 37 40 43 45 47 49 51 49 65 100 85 86 82 80 76 72 73 74 79
38 38 38 38 37 37 34 28 24 20 17 13 8 4 4 6 9 13 18 23 27 32 36 40 44 46 48 50 52 54 56 57 62 83 92 92 88 82 81 78 76 72 72
44 42 41 39 37 34 32 29 25 19 14 10 6 3 4 8 14 20 26 31 35 39 42 46 50 54 56 58 59 62 62 63 64 71 94 91 91 84 87 82 82 84 82
43 40 38 37 35 32 28 24 20 17 13 9 4 5 11 18 24 29 33 36 40 43 47 51 54 59 63 67 67 67 67 68 70 72 79 86 82 82 77 83 93 84 90
44 42 40 38 34 30 27 24 20 15 9 3 5 12 19 24 30 35 38 42 46 48 50 53 56 58 59 60 64 65 66 68 67 71 73 76 74 73 72 73 84 90 90
45 42 40 37 33 29 25 22 17 11 4 4 11 19 26 31 35 37 41 44 47 51 53 54 57 59 60 61 62 63 61 57 60 59 64 69 75 74 76 74 74 78 84
46 44 40 36 31 28 25 20 14 7 6 12 19 25 30 32 35 39 42 45 48 51 55 58 61 60 61 63 64 64 62 56 50 52 60 62 70 66 67 69 68 71 75
49 44 39 35 32 28 23 17 12 9 12 19 23 25 29 33 35 39 43 47 50 51 54 57 59 61 63 66 67 67 63 57 51 49 51 56 57 62 59 61 67 62 65
50 45 40 37 33 27 21 15 12 13 17 19 21 24 28 32 35 38 42 44 48 49 51 54 58 61 63 62 63 63 64 63 58 50 49 49 45 44 45 51 55 56 67
51 46 41 35 29 24 18 15 14 15 16 20 23 25 26 28 30 34 40 45 48 50 51 51 53 59 59 57 54 56 63 61 58 59 57 49 43 40 40 43 48 45 47
52 47 41 35 28 21 17 16 16 17 18 19 23 23 24 27 30 34 39 46 53 57 58 59 56 57 58 54 50 52 54 53 55 56 52 48 44 38 35 34 32 31 34
51 45 38 30 23 20 18 19 19 19 20 19 18 19 21 24 28 33 38 45 50 57 59 60 60 59 53 54 50 47 47 47 51 50 46 44 44 42 34 33 31 25 26
50 42 35 29 25 23 23 22 21 21 18 18 20 23 26 29 32 37 43 47 52 58 61 61 60 57 52 54 52 49 47 46 46 47 46 43 42 40 33 32 28 22 21
47 41 34 30 28 28 28 25 24 21 19 21 24 29 34 39 42 46 54 58 61 61 60 61 62 58 51 49 52 53 46 43 45 47 44 41 40 35 25 24 17 17 12
44 39 35 32 33 35 32 27 25 25 25 26 29 34 41 47 48 52 58 61 59 57 52 64 68 63 62 58 50 52 50 45 45 43 41 42 37 28 19 17 12 13 13
44 40 38 38 39 37 33 32 31 31 30 31 35 38 43 49 53 56 58 57 55 48 52 56 63 65 66 59 54 51 52 50 47 45 41 38 30 22 18 15 15 15 16
45 43 41 42 43 41 39 38 37 36 35 36 39 42 47 52 54 57 59 60 58 53 53 58 63 64 62 60 56 51 52 51 51 46 42 36 31 28 28 28 26 25 25
47 45 45 46 47 45 44 44 44 42 40 38 40 44 48 52 54 55 60 64 60 54 54 57 59 59 59 58 57 56 55 55 51 47 42 37 34 34 32 32 31 30 27
48 48 49 51 50 49 48 47 47 47 47 48 46 44 48 52 54 54 54 57 62 62 59 59 56 56 55 55 55 53 53 51 49 44 40 37 35 33 32 32 31 31 29
52 52 52 53 53 53 53 51 50 51 50 50 49 51 51 55 56 55 54 54 54 54 55 56 55 54 53 52 50 50 48 46 44 42 40 37 35 33 30 31 30 29 30
54 53 55 59 58 57 56 54 53 53 51 52 51 51 54 58 57 56 56 54 54 53 54 53 52 50 49 49 47 45 44 43 42 40 39 38 37 35 29 32 32 32 33
57 57 65 61 60 60 58 57 55 55 54 53 52 50 52 53 53 53 53 52 51 51 52 52 49 47 46 45 43 41 40 41 40 40 41 41 40 34 31 35 33 32 34
68 68 66 64 64 64 62 59 57 56 54 54 53 52 50 51 51 51 51 50 49 49 48 48 48 45 45 44 41 40 39 39 40 42 44 44 41 36 36 39 42 41 36
67 68 67 66 67 64 61 58 57 55 54 52 51 50 50 49 49 49 49 50 48 46 48 49 48 47 45 43 44 43 42 42 42 42 43 43 41 42 45 47 46 40 35
73 71 69 68 66 62 60 57 53 52 52 50 49 50 49 48 48 47 47 48 48 48 48 49 49 48 47 46 45 44 45 44 45 46 46 47 47 46 47 45 39 35 35
73 69 66 65 63 59 56 52 50 49 49 49 49 49 48 49 48 47 46 47 49 50 50 50 50 50 48 49 49 49 49 49 49 49 49 49 49 49 47 42 37 36 38
Wind_Direction_850mb
177 183 186 185 187 192 207 194 153 156 158 162 175 191 238 291 303 307 310 313 313 311 312 315 315 314 313 311 309 307 303 298 289 299 299 303 301 305 302 301 300 295 298
160 159 156 152 153 158 158 153 153 157 153 154 161 186 252 288 302 309 312 316 318 321 321 321 320 317 316 317 315 313 309 305 298 298 302 304 303 306 304 303 304 303 300
155 157 155 154 154 155 154 153 153 157 161 164 176 216 285 319 325 324 327 328 327 326 324 322 322 320 320 319 318 316 314 311 307 304 307 311 312 313 313 313 311 307 306
161 162 159 157 157 157 155 155 158 162 167 172 198 306 328 329 328 325 322 320 319 319 320 320 321 321 320 319 318 316 313 311 309 306 303 306 309 311 312 315 313 312 312
169 168 167 164 163 162 163 164 168 169 173 202 319 329 325 319 316 315 314 315 314 315 317 317 317 318 318 318 317 316 314 311 309 306 304 306 307 311 310 310 307 309 309
175 174 173 171 170 169 169 170 169 172 182 300 319 317 316 315 315 315 315 316 318 319 320 321 321 321 321 319 318 317 316 314 311 309 308 308 308 307 307 306 307 310 313
180 181 179 175 174 174 175 175 177 194 264 296 305 308 309 313 315 317 318 320 325 327 327 326 325 325 323 322 321 319 319 316 313 309 306 305 303 306 310 312 310 306 304
185 185 182 180 180 181 183 188 204 240 280 295 305 311 314 318 322 325 328 330 330 330 329 328 328 328 328 327 323 321 321 320 318 314 310 308 307 310 308 303 301 305 307
190 189 189 187 186 188 193 205 235 273 289 298 306 314 320 322 325 326 326 326 326 329 329 329 329 327 325 324 319 318 316 317 319 317 315 311 312 312 308 305 308 313 315
192 191 189 188 192 198 209 233 259 273 288 301 311 316 319 319 323 326 325 324 324 327 327 325 322 320 320 319 316 314 312 316 318 317 317 316 315 315 308 304 309 315 318
192 191 191 193 199 211 234 254 265 277 290 299 306 314 321 325 325 322 322 323 325 323 321 319 319 318 319 318 316 311 311 314 310 311 314 317 320 321 317 314 316 317 321
192 193 196 201 213 231 246 259 266 273 286 299 310 319 325 325 322 321 322 320 319 317 316 316 317 318 318 316 314 312 309 305 306 312 315 321 324 325 327 326 325 324 329
195 198 203 213 228 240 249 251 256 268 281 297 305 311 316 319 321 319 317 317 317 316 314 313 314 313 314 311 316 316 311 309 309 310 312 315 318 318 319 326 332 337 349
202 206 212 224 235 239 239 243 256 263 278 293 302 308 314 320 321 323 323 324 322 319 318 309 311 311 311 306 308 312 308 306 303 306 306 309 316 318 314 323 344 349 349
209 216 224 232 239 240 238 248 257 262 272 284 295 307 312 316 320 322 323 323 321 320 312 304 308 312 312 311 307 308 314 308 306 305 305 308 315 322 319 317 326 348 348
217 224 231 237 239 240 245 251 255 263 273 284 293 300 305 309 313 317 319 318 318 312 307 304 304 303 305 307 305 301 303 305 303 303 300 302 309 313 317 323 323 325 325
224 232 238 242 242 242 249 254 260 264 270 277 286 294 299 303 309 313 315 314 318 309 305 301 298 300 302 304 302 300 296 298 299 294 292 291 292 291 295 301 303 305 306
232 239 244 246 244 246 253 260 264 267 273 280 287 294 298 302 306 309 311 313 311 307 307 305 303 301 301 301 298 293 290 292 291 286 281 280 282 285 287 290 293 296 298
240 245 248 247 247 250 257 265 270 275 278 282 288 293 297 300 304 309 310 311 312 312 311 307 305 303 302 299 298 296 294 291 287 279 272 272 273 274 281 284 286 289 291
244 248 251 250 250 253 258 266 273 277 280 284 291 296 299 300 305 309 310 311 311 310 307 304 304 301 301 300 299 299 295 291 284 276 271 268 267 268 273 281 283 286 289
250 252 256 252 252 255 260 266 273 277 280 284 289 293 297 301 306 307 309 312 313 311 309 307 305 302 300 299 298 297 294 289 282 276 271 268 267 264 268 277 283 288 293
253 258 256 253 254 257 260 264 270 274 278 282 285 288 293 298 301 305 309 311 310 309 307 306 306 303 300 298 296 294 291 288 283 277 273 270 266 264 269 276 280 286 290
254 251 252 252 254 255 258 262 267 272 276 280 285 290 294 296 301 305 307 307 306 304 302 301 301 300 299 297 294 291 287 285 284 283 279 274 270 269 270 275 281 283 284
247 250 251 251 252 254 258 262 267 271 275 280 284 288 293 296 300 302 303 302 302 301 299 298 298 299 298 296 294 291 288 285 283 282 281 279 279 277 276 278 278 277 275
248 247 248 250 252 254 257 261 265 269 273 278 282 287 290 293 296 297 298 298 298 298 297 296 294 293 293 293 292 290 289 287 286 284 283 282 281 279 278 276 273 271 269
245 245 247 248 250 252 256 260 263 267 271 274 278 282 287 290 291 293 294 294 294 294 294 293 291 291 290 290 289 288 286 285 284 283 283 283 282 280 276 273 269 266 264